User: anonymous   Login
Location: Terra Rouge Observatory
(46.0000°N, 62.7500°W)
Time: 10:56:33
(UTC-03:00)
Language:

Landsat 5 - Orbit

View from above orbital plane
View from above orbital plane
View from above satellite
View from above satellite

Ground track
Ground track

The orbit data is extracted from the following two-line orbital elements,

1 14780U 84021A   17111.89364744 +.00000313 +00000-0 +35141-4 0  9996
2 14780 098.0332 222.7799 0090814 355.6075 004.4335 14.91456672291947
Epoch (UTC): 21 April 2017 21:26:51
Eccentricity: 0.0090814
inclination: 98.0332°
perigee height: 530 km
apogee height: 657 km
right ascension of ascending node: 222.7799°
argument of perigee: 355.6075°
revolutions per day: 14.91456672
mean anomaly at epoch: 4.4335°
orbit number at epoch: 29194

The dashed part of the orbit path shows where the satellite is in the earth's shadow,  

DLR